Terminal Aerodrome Forecast
Issued by NWS

Home | Current Version | Previous Version | Text Only | Print | Product List | Glossary On
Versions: 1 2 3 4 5 6 7 8 9 10 11 12 13 14 15 16 17 18
000
FTUS43 KEAX 310500
TAFSTJ
TAF
KSTJ 310520Z 3106/0106 02005KT P6SM OVC020
      TEMPO 3109/3112 BKN008
     FM311500 05005KT P6SM SCT025 BKN035
     FM311900 06008KT P6SM SCT050=

USA.gov is the U.S. government's official web portal to all federal, state and local government web resources and services.